Wind_Speed
8 8 7 7 6 6 5 5 5 4 3 3 3 3 3 3 4 3 3 3 4 4 4 5 6 6 6 5 6 6 5 5 5 5 5 5 5 5 5 5 5 4 4
9 8 7 7 7 6 6 6 5 5 4 4 3 3 3 3 3 3 3 3 4 4 4 4 5 5 5 5 6 6 6 5 5 6 5 5 5 5 5 4 4 4 4
9 8 7 7 7 6 6 5 4 4 4 3 3 3 3 3 3 3 3 3 4 3 3 4 4 5 5 6 6 6 6 6 5 6 6 5 5 5 5 4 4 4 3
9 8 7 7 6 6 5 4 4 3 3 2 2 2 2 2 2 3 3 3 3 3 3 4 4 5 5 6 6 5 6 6 6 5 5 5 5 5 5 4 4 3 3
9 9 8 8 7 6 4 4 4 3 2 1 1 1 1 1 2 2 3 3 3 3 3 3 4 5 5 5 6 5 5 6 6 5 5 6 6 5 6 5 4 4 4
10 9 9 8 8 6 5 4 4 3 2 1 1 0 1 1 1 2 3 4 3 3 3 4 4 5 6 6 6 6 6 6 6 5 6 6 6 6 6 5 5 5 5
10 10 9 8 8 7 6 5 4 3 2 1 1 0 1 1 2 3 3 3 3 3 4 4 4 5 6 6 6 6 7 7 6 6 6 6 6 7 6 6 5 5 5
10 10 9 8 7 6 6 5 4 3 2 1 1 0 1 2 3 4 4 4 4 4 4 5 6 5 6 6 6 6 6 7 7 7 6 6 6 7 7 6 6 6 6
10 10 9 9 7 6 5 5 4 4 3 2 1 1 1 2 3 4 5 5 5 5 6 6 7 6 6 6 6 6 6 7 8 7 6 6 7 7 7 7 7 6 7
9 9 9 8 7 6 5 5 5 4 4 3 3 2 3 4 4 4 5 5 5 6 6 7 7 7 6 6 7 7 7 7 8 8 7 7 7 8 7 7 7 7 7
9 8 8 9 8 6 6 5 5 5 4 4 4 4 4 5 5 5 5 6 6 7 7 8 8 8 7 7 7 7 7 7 9 9 8 8 8 8 9 8 7 7 7
10 9 8 9 8 7 6 5 5 5 5 5 5 4 4 5 5 5 5 6 6 6 7 8 8 7 7 8 8 8 8 8 8 9 9 9 9 8 9 9 8 8 8
11 10 10 9 8 6 6 5 5 5 6 5 5 4 4 4 5 5 6 5 6 6 7 7 7 7 8 8 8 9 9 9 9 9 9 9 9 9 9 9 9 9 8
10 10 10 9 8 7 7 6 6 6 7 6 5 5 5 5 5 5 5 5 5 6 6 7 7 7 8 8 8 9 9 9 10 10 10 10 10 10 10 9 10 9 9
9 9 9 9 9 8 8 7 7 7 7 6 5 5 5 5 5 5 5 5 5 6 6 7 7 7 8 8 9 9 9 9 10 10 10 10 10 10 10 11 10 10 10
10 9 10 9 9 8 8 8 8 7 7 7 6 6 5 5 5 6 6 6 6 6 7 7 8 8 9 9 10 10 11 10 10 10 10 11 10 11 11 11 11 10 10
10 10 10 10 9 8 8 8 7 7 7 7 7 7 6 5 5 6 7 7 8 8 8 8 9 9 9 10 10 11 11 11 11 11 11 11 11 11 11 12 12 11 12
10 9 10 10 9 9 9 9 8 8 7 7 7 8 7 6 6 7 7 8 9 9 10 10 10 10 10 10 10 10 11 11 11 11 12 12 12 13 13 13 13 13 13
10 9 10 9 10 9 9 9 9 8 8 8 8 8 8 7 7 7 8 8 9 9 10 10 11 11 11 11 11 11 12 12 12 12 12 13 13 14 14 14 14 14 14
9 9 10 10 10 10 10 9 9 8 8 8 9 9 9 8 7 8 8 9 10 10 10 11 11 11 11 11 11 12 13 12 12 13 13 14 14 14 15 15 15 15 15
9 9 10 9 9 10 10 9 9 8 9 9 9 10 9 8 8 8 8 9 10 10 11 11 11 11 11 11 12 12 13 12 13 12 13 14 15 15 15 16 17 17 16
10 10 9 9 9 10 9 9 9 9 9 10 10 10 9 9 9 9 8 9 10 10 11 12 11 11 12 13 13 13 13 13 13 14 14 15 15 15 15 15 15 16 16
10 10 10 10 10 10 10 10 10 10 10 10 10 10 10 10 9 9 9 9 10 10 12 12 12 12 12 13 13 13 13 14 13 14 14 15 15 15 16 16 17 17 16
10 11 11 10 10 10 10 10 10 10 10 10 10 10 10 10 10 10 10 10 10 11 12 12 11 12 12 12 12 13 14 14 15 15 15 15 15 16 16 17 18 18 18
11 11 11 10 10 10 10 10 10 10 10 11 11 11 11 11 10 11 10 10 11 11 12 12 12 12 12 13 13 14 14 15 16 16 16 17 17 17 17 18 18 19 19
11 10 10 10 11 11 11 11 10 11 11 12 12 12 12 12 12 11 11 11 11 12 12 12 12 13 13 14 14 14 15 16 17 17 17 17 18 18 18 18 19 19 19
Wind_Direction
56 62 64 67 67 67 65 71 81 80 90 109 116 130 140 137 132 137 147 153 154 158 166 169 173 172 175 175 177 181 187 192 195 194 195 197 193 195 199 197 192 188 194
56 59 64 62 63 61 64 68 72 78 89 100 112 125 129 135 149 159 170 174 168 164 167 173 176 180 180 186 189 194 203 203 198 197 199 200 199 196 196 199 198 195 192
54 54 59 61 64 67 67 67 71 77 90 95 107 125 133 143 159 170 190 195 196 185 182 186 187 192 193 197 201 208 213 213 205 203 204 205 205 202 200 202 203 194 191
55 58 59 63 65 65 65 64 67 71 81 95 107 125 140 160 178 193 207 205 199 196 202 198 194 201 205 206 211 215 212 212 208 206 206 207 206 204 202 202 206 195 188
54 57 59 61 60 58 59 60 59 62 63 85 108 146 161 181 204 206 208 208 206 215 222 212 208 209 206 212 218 219 211 207 208 209 211 211 211 208 203 206 212 205 201
54 54 54 58 59 56 59 63 61 67 73 80 88 130 188 211 222 217 216 217 219 227 232 223 219 221 215 216 221 221 213 208 210 209 214 215 212 208 206 207 208 207 205
48 47 50 56 60 61 61 58 54 57 67 78 58 268 275 263 247 230 233 231 233 235 235 227 235 233 225 223 225 225 220 218 216 211 212 213 211 207 207 207 212 217 218
47 44 48 47 52 57 56 53 49 40 25 24 21 326 262 257 255 254 254 249 239 234 235 233 238 234 227 230 227 224 219 222 221 214 212 212 211 208 207 212 217 225 221
48 44 43 41 36 38 43 41 35 20 10 356 328 300 287 279 270 269 275 267 251 245 240 240 240 235 229 234 234 229 224 221 222 213 214 221 216 213 215 218 220 220 220
45 39 37 36 34 30 25 24 22 13 3 350 322 300 290 288 285 280 277 269 260 253 247 242 241 238 242 241 238 236 230 224 223 217 216 221 223 220 219 223 222 223 224
40 38 36 34 31 28 24 13 6 2 355 341 319 301 288 287 287 281 276 267 262 254 249 243 242 243 243 239 237 236 235 233 228 222 221 224 227 227 225 223 222 224 227
34 33 34 33 29 24 20 14 356 349 347 340 324 306 295 287 286 279 274 268 263 260 251 244 245 246 242 239 236 238 236 236 232 225 224 226 225 228 226 224 225 229 228
30 25 23 23 23 19 14 12 359 348 348 343 333 318 303 291 284 283 282 274 267 261 251 247 252 252 249 243 239 238 237 236 234 230 229 229 229 232 233 230 228 228 227
27 23 21 16 14 12 5 2 352 348 345 344 340 329 317 306 290 283 282 282 270 262 263 259 255 255 253 246 246 244 246 241 237 234 231 233 235 236 235 231 230 233 230
22 19 17 16 13 9 4 357 350 344 342 344 338 325 318 311 301 290 287 284 279 279 273 262 259 262 258 258 254 247 247 246 244 239 238 239 236 235 235 236 237 239 235
15 14 11 10 10 8 5 0 356 348 346 344 342 331 318 311 298 289 286 289 287 284 277 269 266 265 266 261 255 249 247 245 245 244 245 246 243 238 237 236 237 238 241
6 5 5 4 4 4 3 358 355 355 354 351 349 338 322 309 299 290 289 288 284 279 275 272 268 263 264 261 257 252 246 246 247 245 247 247 244 240 237 236 239 241 246
5 5 3 2 1 359 357 356 354 352 350 346 344 337 326 313 302 294 291 290 285 277 275 275 271 266 263 259 255 252 250 250 250 250 249 248 247 243 239 240 242 243 246
9 6 0 360 359 357 355 352 350 351 350 345 342 336 328 319 305 297 292 289 286 283 279 277 274 269 262 257 256 256 255 253 250 251 249 248 248 245 243 243 244 246 249
8 6 1 359 357 355 352 350 347 351 353 351 348 340 331 321 310 300 294 292 290 288 285 280 273 270 263 258 259 262 260 257 252 249 248 249 247 248 248 245 246 248 250
8 7 5 4 359 356 355 357 355 355 354 350 345 340 335 326 316 307 301 295 291 290 287 285 277 268 263 259 262 262 261 258 256 254 251 251 252 252 251 248 249 250 250
7 7 5 4 0 358 355 353 354 352 350 348 344 339 333 325 318 314 311 304 295 290 289 289 283 271 267 264 263 260 258 258 254 254 254 253 252 250 250 252 255 255 254
360 0 1 3 2 360 356 352 349 345 343 341 337 335 332 325 321 319 316 310 304 298 290 288 279 274 271 268 264 262 259 260 258 258 259 256 254 252 251 254 256 255 255
355 357 355 354 354 352 351 350 346 342 337 336 336 334 331 327 321 320 317 314 308 305 297 291 281 278 277 271 268 264 261 259 258 259 259 257 254 252 251 253 255 255 255
351 352 349 347 347 344 342 341 338 337 335 335 333 331 331 329 322 318 314 314 314 311 304 295 284 280 276 273 271 269 266 262 260 259 258 256 256 256 253 254 254 253 253
345 344 344 342 340 340 339 338 334 332 330 329 328 326 324 323 321 319 317 316 313 311 307 301 288 283 277 277 276 275 272 268 263 260 258 256 256 256 256 255 256 254 255
Height
5886 5885 5885 5885 5884 5884 5884 5884 5884 5884 5885 5885 5885 5886 5886 5887 5887 5888 5888 5888 5888 5889 5889 5889 5890 5890 5890 5891 5892 5892 5893 5893 5893 5893 5894 5894 5894 5894 5894 5895 5895 5895 5896
5887 5886 5886 5886 5886 5885 5885 5885 5885 5885 5886 5886 5886 5887 5887 5887 5888 5888 5889 5889 5888 5889 5889 5889 5889 5890 5890 5891 5891 5892 5892 5892 5893 5893 5893 5894 5894 5894 5894 5894 5895 5895 5895
5888 5887 5887 5887 5887 5886 5886 5886 5886 5886 5887 5887 5887 5887 5888 5888 5888 5889 5889 5889 5889 5889 5889 5889 5889 5890 5890 5890 5891 5891 5892 5892 5892 5893 5893 5893 5894 5894 5894 5894 5894 5895 5895
5889 5888 5888 5888 5887 5887 5887 5887 5887 5887 5887 5887 5888 5888 5888 5888 5889 5889 5889 5889 5889 5889 5889 5889 5889 5889 5890 5890 5890 5890 5891 5891 5892 5892 5892 5893 5893 5894 5894 5894 5894 5895 5895
5890 5889 5889 5888 5888 5888 5888 5888 5888 5888 5888 5888 5888 5888 5888 5888 5888 5889 5889 5889 5889 5888 5888 5888 5889 5889 5889 5889 5889 5890 5890 5891 5891 5891 5892 5892 5893 5893 5893 5894 5894 5894 5895
5891 5890 5889 5889 5889 5889 5889 5889 5888 5888 5888 5888 5888 5888 5888 5888 5888 5888 5888 5888 5888 5888 5888 5888 5888 5888 5888 5889 5889 5889 5890 5890 5890 5891 5891 5892 5892 5892 5893 5893 5894 5894 5895
5892 5891 5890 5890 5890 5889 5889 5889 5889 5888 5888 5888 5888 5888 5888 5888 5888 5888 5888 5888 5888 5888 5887 5887 5888 5888 5888 5888 5888 5888 5889 5889 5889 5890 5890 5891 5891 5892 5892 5892 5893 5894 5894
5893 5892 5892 5891 5890 5890 5890 5890 5889 5889 5888 5888 5888 5888 5888 5888 5887 5887 5887 5887 5887 5887 5887 5887 5887 5887 5887 5887 5887 5887 5887 5888 5888 5889 5889 5890 5890 5891 5891 5892 5892 5892 5893
5894 5893 5892 5891 5891 5890 5890 5890 5889 5889 5888 5888 5888 5887 5887 5887 5887 5886 5886 5886 5886 5886 5886 5886 5886 5886 5886 5886 5886 5886 5886 5887 5887 5888 5888 5889 5889 5890 5890 5891 5891 5891 5891
5895 5894 5893 5892 5891 5890 5889 5889 5889 5888 5888 5887 5887 5887 5886 5886 5886 5885 5885 5885 5885 5885 5885 5884 5884 5885 5884 5884 5885 5885 5885 5885 5886 5886 5887 5888 5888 5889 5889 5889 5890 5890 5890
5896 5895 5894 5893 5891 5890 5890 5889 5888 5888 5887 5886 5886 5886 5885 5885 5884 5884 5884 5883 5883 5883 5883 5883 5883 5883 5883 5883 5883 5883 5883 5884 5884 5885 5886 5886 5887 5887 5887 5888 5888 5888 5889
5897 5896 5894 5893 5892 5890 5890 5889 5888 5887 5886 5885 5885 5884 5884 5883 5883 5882 5882 5882 5881 5881 5881 5881 5881 5881 5881 5881 5881 5882 5882 5882 5883 5883 5884 5884 5885 5885 5885 5886 5886 5887 5887
5897 5896 5895 5893 5892 5891 5890 5888 5887 5886 5885 5884 5883 5883 5882 5882 5881 5881 5881 5880 5880 5879 5879 5879 5879 5879 5879 5880 5880 5880 5880 5881 5881 5881 5882 5882 5883 5883 5884 5884 5884 5885 5886
5898 5897 5895 5893 5892 5891 5889 5887 5886 5885 5884 5883 5882 5881 5881 5880 5880 5879 5879 5879 5878 5878 5878 5878 5878 5878 5878 5878 5878 5878 5878 5879 5879 5879 5880 5880 5881 5881 5882 5882 5883 5883 5884
5898 5897 5895 5893 5892 5890 5888 5887 5885 5884 5883 5882 5881 5880 5879 5879 5878 5878 5878 5878 5877 5877 5876 5876 5876 5876 5876 5876 5876 5876 5876 5877 5877 5877 5878 5878 5878 5879 5880 5880 5881 5881 5882
5897 5896 5895 5893 5891 5890 5888 5887 5885 5883 5882 5881 5880 5879 5878 5878 5877 5877 5876 5876 5875 5875 5874 5874 5874 5874 5873 5873 5873 5873 5874 5874 5875 5875 5875 5876 5876 5876 5877 5878 5878 5879 5879
5897 5896 5894 5892 5891 5889 5887 5886 5885 5883 5881 5880 5879 5878 5877 5876 5875 5875 5874 5874 5873 5873 5872 5871 5871 5871 5871 5871 5871 5871 5871 5872 5872 5872 5873 5873 5874 5874 5875 5875 5876 5876 5877
5897 5895 5893 5892 5890 5888 5887 5885 5884 5882 5881 5879 5878 5877 5876 5875 5874 5873 5872 5872 5871 5870 5870 5869 5868 5868 5868 5868 5868 5868 5868 5869 5869 5869 5870 5870 5871 5871 5872 5872 5873 5873 5874
5896 5895 5893 5891 5889 5888 5886 5885 5883 5881 5880 5878 5877 5876 5874 5873 5872 5871 5870 5869 5868 5868 5867 5866 5866 5865 5864 5864 5864 5865 5865 5865 5866 5866 5866 5867 5867 5868 5868 5869 5869 5870 5871
5896 5894 5892 5890 5889 5887 5885 5884 5882 5880 5879 5877 5876 5874 5872 5871 5870 5869 5868 5867 5866 5865 5864 5863 5863 5861 5861 5861 5861 5861 5862 5862 5862 5862 5863 5863 5864 5864 5865 5865 5866 5866 5867
5895 5894 5892 5890 5888 5886 5885 5883 5881 5879 5878 5876 5874 5873 5871 5869 5868 5867 5866 5865 5863 5862 5861 5860 5859 5859 5858 5858 5858 5858 5858 5858 5858 5859 5859 5859 5860 5861 5861 5861 5862 5862 5863
5895 5893 5891 5889 5887 5885 5884 5882 5880 5878 5876 5875 5873 5871 5869 5867 5866 5865 5863 5862 5861 5860 5858 5857 5856 5855 5855 5855 5855 5855 5855 5856 5855 5855 5855 5855 5856 5856 5857 5857 5858 5858 5859
5894 5892 5890 5888 5886 5884 5882 5880 5878 5877 5875 5873 5871 5869 5868 5866 5864 5863 5861 5860 5858 5857 5855 5854 5853 5852 5852 5851 5851 5852 5852 5852 5852 5852 5851 5852 5852 5852 5853 5853 5854 5854 5855
5893 5891 5889 5887 5885 5883 5881 5879 5877 5875 5874 5872 5869 5868 5866 5863 5862 5860 5858 5857 5855 5853 5852 5850 5849 5848 5848 5848 5848 5848 5848 5848 5848 5848 5848 5848 5848 5848 5848 5849 5849 5849 5850
5891 5889 5888 5886 5884 5882 5880 5878 5876 5874 5872 5870 5868 5866 5863 5861 5859 5857 5856 5854 5852 5850 5848 5847 5846 5845 5844 5844 5843 5843 5843 5843 5843 5844 5843 5843 5843 5843 5844 5844 5844 5844 5845
5890 5888 5886 5884 5882 5880 5878 5876 5874 5872 5870 5868 5866 5863 5861 5859 5857 5855 5853 5851 5849 5847 5845 5843 5842 5841 5840 5840 5839 5839 5839 5839 5838 5839 5839 5839 5838 5839 5839 5839 5839 5838 5839